Location: Unspecified
(52.4292°N, 19.3359°E)
Time: 23:01:46
(UTC+02:00)

SR - Pass Details

Date: 29 May 2024
Orbit: 580 x 858 km, 66.7° (Epoch: 12 June)

Event Time Altitude Azimuth Distance (km) Brightness Sun altitude
Rises 23:20:08 0° 321° (NW) 2,925 ? -13.7°
Reaches altitude 10° 23:22:46 10° 334° (NNW) 1,978 ? -13.9°
Maximum altitude 23:26:31 26° 32° (NNE) 1,176 ? -14.1°
Drops below altitude 10° 23:30:08 10° 91° (E) 1,907 ? -14.2°
Enters shadow 23:32:01 - 101° (ESE) 2,570 ? -14.3°
Sets 23:32:37 0° 104° (ESE) 2,797 - -14.3°
